Location: Arrodets-la-Barthe
(43.0306°N, 0.2829°E)
Time: 00:16:51
(UTC+00:00)

DUCHIFAT 1 - Pass Details

Date: 11 April 2023
Orbit: 567 x 581 km, 98.1° (Epoch: 29 May)

Event Time Altitude Azimuth Distance (km) Brightness Sun altitude
Rises 03:43:40 0° 6° (N) 2,781 ? -18.0°
Reaches altitude 10° 03:45:52 10° 1° (N) 1,877 ? -17.6°
Maximum altitude 03:49:45 46° 288° (WNW) 773 ? -17.0°
Enters shadow 03:50:57 35° 243° (WSW) 935 ? -16.8°
